Home   Weather   Vestby   Past weeks

Flag for Norway Past Weather in Vestby, Norway — Yesterday and Last 2 Weeks

Now
25 °F

Passing clouds.


Feels Like: 20 °F
Forecast: 24 / 30 °F
Wind: 3 mph from East

Location: Rygge

Current Time: Dec 3, 2016 at 11:10:35 pm

Latest Report: Dec 3, 2016 at 10:20 pm


Visibility: N/A

Pressure: 30.15 "Hg

Humidity: 93%

Dew Point: 23 °F

Location of VestbyLocation

Past Weather in Vestby — Graph

°F

Vestby Temperature Yesterday

Maximum temperature yesterday: 39 °F (at 11:20 am)
Minimum temperature yesterday: 28 °F (at 11:20 pm)
Average temperature yesterday: 34 °F

High & Low Weather Summary for the Past Weeks

 TemperatureHumidityPressure
High50 °F (Nov 26, 11:50 am)100% (Nov 19, 8:20 pm)30.45 "Hg (Nov 19, 8:20 pm)
Low19 °F (Dec 3, 4:50 am)42% (Nov 26, 3:50 pm)29.09 "Hg (Nov 18, 9:20 pm)
Average37 °F79%29.87 "Hg
* Reported Nov 18 9:20 pm — Dec 3 9:50 pm, Vestby, Weather by CustomWeather, © 2016

Note: Actual official high and low records may vary slightly from our data, if they occured in-between our weather recording intervals... More about our weather records

Advertising

Vestby Weather History for the Previous 24 Hours

Scroll right to see more
 ConditionsComfort  
Time TempWeatherWind HumidityBarometerVisibility
9:50 pm
Sat, Dec 3
25 °FCold.3 mph93%30.15 "HgN/A
9:20 pm25 °FPassing clouds.2 mph93%30.15 "Hg6 mi
8:50 pm25 °FPassing clouds.1 mph93%30.15 "HgN/A
8:20 pm25 °FPassing clouds.1 mph100%30.15 "HgN/A
7:50 pm25 °FPassing clouds.2 mph100%30.15 "HgN/A
7:20 pm27 °FPassing clouds.2 mph93%30.15 "HgN/A
6:50 pm27 °FPassing clouds.2 mph93%30.15 "HgN/A
6:20 pm27 °FPassing clouds.3 mph93%30.12 "HgN/A
5:50 pm27 °FMostly cloudy.2 mph100%30.12 "HgN/A
5:20 pm27 °FOvercast.3 mph93%30.12 "HgN/A
4:50 pm27 °FOvercast.3 mph93%30.12 "HgN/A
4:20 pm27 °FMostly cloudy.2 mph93%30.12 "HgN/A
3:50 pm28 °FPassing clouds.2 mph93%30.12 "HgN/A
3:20 pm28 °FPartly sunny.2 mph86%30.12 "HgN/A
2:50 pm30 °FOvercast.3 mph86%30.12 "HgN/A
2:20 pm30 °FOvercast.3 mph86%30.12 "HgN/A
1:50 pm30 °FSunny.2 mph86%30.12 "Hg10 mi
1:20 pm30 °FPassing clouds.3 mph86%30.12 "HgN/A
12:50 pm30 °FPassing clouds.3 mph86%30.12 "HgN/A
12:20 pm30 °FSunny.2 mph86%30.12 "Hg10 mi
11:50 am30 °FPassing clouds.5 mph93%30.12 "HgN/A
11:20 am27 °FSunny.3 mph93%30.12 "Hg10 mi
10:50 am27 °FPassing clouds.3 mph93%30.12 "HgN/A
10:20 am27 °FPassing clouds.3 mph86%30.12 "HgN/A
9:50 am25 °FPartly sunny.2 mph93%30.15 "HgN/A
9:20 am28 °FOvercast.7 mph93%30.12 "HgN/A
8:50 am23 °FPassing clouds.3 mph93%30.12 "HgN/A
8:20 am23 °FPartly cloudy.1 mph93%30.12 "HgN/A
7:50 am21 °FOvercast.3 mph93%30.12 "HgN/A
7:20 am21 °FOvercast.3 mph93%30.15 "HgN/A
6:50 am19 °FPassing clouds.3 mph100%30.12 "HgN/A
6:20 am19 °FCold.2 mph93%30.15 "HgN/A
5:50 am19 °FCold.3 mph93%30.15 "HgN/A
5:20 am21 °FPassing clouds.1 mph93%30.15 "HgN/A
4:50 am19 °FPassing clouds.2 mph93%30.15 "Hg6 mi
4:20 am21 °FCold.2 mph100%30.15 "HgN/A
3:50 am21 °FCold.1 mph93%30.15 "HgN/A
2:50 am25 °FCold.3 mph80%30.15 "HgN/A
2:20 am23 °FPassing clouds.3 mph93%30.15 "HgN/A
1:50 am23 °FPassing clouds.1 mph93%30.18 "HgN/A
1:20 am23 °FPassing clouds.1 mph93%30.18 "HgN/A
11:20 pm
Fri, Dec 2
28 °FChilly.3 mph74%30.15 "HgN/A
Weather by CustomWeather, © 2016

See weather overviewHow to use our weather pages